#timestamp,LO_Frequency,Hit 
1502481615.7,286047001.4,N
1502481635.6,286047002.0,N
1502481655.4,286047001.7,N
1502481675.2,286047002.0,N
1502481695.0,286046998.8,N
1502481696.0,286046998.8,N
1502481715.8,286046999.2,N
1502481735.6,286046999.6,N
1502481755.4,286046998.5,N
1502481775.3,286047002.4,N
1502481795.1,286047004.3,N
1502481815.8,286047001.3,N
1502481835.7,286047000.2,N
1502481855.5,286047005.6,P
1502481875.3,286047003.9,N
1502481895.2,286047005.4,N
1502481915.9,286047003.7,N
1502481935.7,286047003.3,N
1502481955.6,286047007.5,P
1502481975.4,286047004.7,N
1502481995.2,286047003.9,N
1502482015.1,286047001.3,N
1502482016.0,286047001.3,N
1502482035.8,286047000.8,N
1502482055.6,286046999.9,N
1502482075.5,286047001.8,N
1502482095.3,286047002.8,N
1502482115.1,286047000.5,N
1502482135.9,286046998.4,N
1502482155.7,286046996.9,N
1502482175.5,286047001.2,N
1502482195.4,286047003.6,N
1502482215.2,286047002.9,N
1502482235.0,286047005.8,N
1502482235.9,286047005.8,N
1502482255.8,286047004.1,N
1502482275.6,286047004.4,N
1502482295.4,286047001.7,N
1502482315.2,286047002.2,N
1502482335.1,286047000.3,N
1502482336.0,286047000.3,N
1502482355.8,286047000.9,N
1502482375.6,286047002.2,N
1502482395.5,286047002.5,N
1502482415.3,286047000.2,N
1502482435.1,286047004.2,N
1502482455.9,286047001.9,N
1502482475.7,286047003.4,N
1502482495.5,286047001.5,N
1502482515.4,286047003.5,N
1502482535.2,286047004.0,N
1502482555.0,286047005.7,N
1502482555.9,286047005.7,N
1502482575.8,286047005.8,N
1502482595.6,286047003.0,N
1502482615.4,286047004.6,N
1502482635.2,286047006.1,N
1502482655.1,286047005.0,N
1502482656.0,286047005.0,N
1502482675.8,286047003.0,N
1502482695.7,286047006.0,P
1502482715.5,286047001.5,N
1502482735.3,286047003.2,N
1502482755.1,286047002.8,N
1502482775.9,286046998.4,N
1502482795.3,286046999.3,N
1502482815.1,286046997.8,N
1502482835.8,286046998.9,N
1502482855.7,286047001.3,N
1502482875.5,286047003.3,N
1502482895.3,286047001.3,N
1502482915.2,286047004.4,N
1502482935.9,286047001.6,N
1502482955.7,286047003.8,N
1502482975.6,286047002.0,N
1502482995.4,286047002.3,N
1502483015.2,286047005.1,N
1502483035.0,286047004.8,N
1502483035.9,286047004.8,N
1502483055.8,286047001.5,N
1502483075.6,286047003.5,N
1502483095.4,286047003.5,N
1502483115.3,286047001.8,N
1502483135.1,286047002.1,N
1502483155.8,286047002.0,N
1502483175.7,286047002.3,N
1502483195.5,286047002.8,N
1502483215.3,286047002.7,N
1502483235.2,286047003.6,N
1502483255.9,286047002.0,N
1502483275.7,286046999.8,N
1502483295.6,286047003.6,N
1502483315.4,286047002.4,N
1502483335.2,286047000.0,N
1502483355.0,286046998.7,N
1502483355.9,286046998.7,N
1502483375.8,286046999.0,N
1502483395.6,286047001.2,N
1502483415.4,286046996.9,N
1502483435.3,286046994.9,N
1502483455.1,286046998.0,N
1502483475.8,286046996.5,N
1502483495.7,286046997.3,N
1502483515.5,286046995.6,N
1502483535.3,286046998.0,N
1502483555.2,286046992.1,N
1502483575.9,286046994.3,N
1502483595.7,286046992.1,N
1502483615.6,286046990.6,N
1502483635.4,286046991.9,N
1502483655.2,286046990.6,N
1502483675.0,286046992.8,N
1502483676.0,286046992.8,N
1502483695.8,286046991.4,N
1502483715.6,286046991.1,N
1502483735.4,286046992.5,N
1502483755.3,286046994.8,N
1502483775.1,286046991.7,N
1502483795.8,286046990.6,N
1502483815.7,286046993.3,N
1502483835.5,286046999.5,N
1502483855.3,286046997.5,N
1502483875.2,286046998.0,N
1502483895.9,286046997.4,N
1502483915.7,286046999.6,N
1502483935.6,286046997.9,N
1502483955.4,286046999.5,N
1502483975.2,286046996.7,N
1502483995.1,286046996.6,N
1502483996.0,286046996.6,N
1502484015.8,286046995.4,N
1502484035.6,286046997.1,N
1502484055.5,286047000.7,N
1502484075.3,286046998.9,N
1502484095.1,286047000.9,N
1502484115.8,286047002.5,N
1502484135.7,286047000.1,N
1502484155.5,286046998.6,N
1502484175.3,286046996.5,N
1502484195.2,286046998.3,N
1502484215.9,286046996.9,N
1502484235.7,286046999.0,N
1502484255.6,286047000.0,N
1502484275.4,286047002.3,N
1502484295.2,286047002.0,N
1502484315.1,286047002.2,N
1502484316.0,286047002.2,N
1502484335.8,286047005.6,N
1502484355.6,286047003.9,N
1502484375.5,286047004.8,N
1502484395.3,286047003.7,N
1502484415.1,286047001.8,N
1502484435.9,286047002.6,N
1502484455.7,286047000.3,N
1502484475.5,286046999.8,N
1502484495.3,286046996.5,N
1502484515.2,286047002.3,N
1502484535.0,286047000.5,N
1502484535.9,286047000.5,N
1502484555.7,286047004.3,N
1502484575.6,286047002.3,N
1502484595.4,286046998.9,N
1502484615.2,286046999.4,N
1502484635.1,286046998.5,N
1502484636.0,286046998.5,N
1502484655.8,286047000.9,N
1502484675.6,286046999.0,N
1502484695.5,286046996.7,N
1502484715.3,286046996.6,N
1502484735.1,286047000.9,N
1502484755.9,286046998.9,N
1502484775.7,286046999.0,N
1502484795.5,286046999.6,N
1502484815.3,286046999.6,N
1502484835.2,286046999.0,N
1502484855.0,286046997.0,N
1502484855.9,286046997.0,N
1502484875.7,286046999.3,N
1502484895.6,286046998.9,N
1502484915.4,286046998.7,N
1502484935.2,286046999.9,N
1502484955.1,286047002.6,N
1502484956.0,286047002.6,N
1502484975.8,286046999.7,N
1502484995.6,286046999.8,N
1502485015.5,286046998.1,N
1502485035.3,286046998.8,N
1502485055.1,286047001.0,N
1502485075.9,286047002.3,N
1502485095.7,286047002.0,N
1502485115.5,286047003.5,N
1502485135.4,286047003.1,N
1502485155.2,286047001.7,N
1502485175.0,286047000.2,N
1502485175.9,286047000.2,N
1502485195.7,286047002.7,N
